Etusivu
METAR-TAF:

METAR-TAF

Lentoasemat :

Sparta, Wisconsin, Yhdysvallat

Leveyspiiri: 43-57-30N, Pituuspiiri: 090-44-16W, korkeus merenpinnasta: 255 m

Tämänhetkinen sää

Tämä raportti tehtiin 13 minuuttia sitten, kello 21.15 UTC
Tuuli 5 kn etelästä/kaakosta
Lämpötila 5°C
Kosteus 56%
Ilmanpaine 1022 hPa
Näkyvyys: 16.1 km
selkeää

METAR: KCMY 162115Z AUTO 15005KT 10SM CLR 05/M03 A3018 RMK AO2 T00451032

Aika: 15:28 (21:28 UTC)


TAF: puuttuu

Säähavainnot ja -ennusteet yli 4000 lentoasemalta (METAR- ja TAF-raportit).

Käytössä olevat sääasemat on merkitty karttaan keltaisilla ja punaisilla pisteillä.

Aseta hiiri pisteen päälle nähdäksesi sääaseman nimen.

Klikkaa sitten nähdäksesi säähavainnot ja -ennusteet.

Kartan vaihtaminen: klikkaa mustalla rastilla varustettuja vihreitä pisteitä, niin voit zoomata sisään; viivalla varustettua vihreää pistettä, niin voit zoomata ulos tai vihreitä nuolia, niin pääset viereisille kartoille.


METAR-TAF: